{"data":{"norad_id":59354,"intl_designator":"2024-060G","name":"STARLINK-31422","alt_names":[],"object_type":"PAYLOAD","status":"ACTIVE","operator":null,"country":"US","launch_date":"2024-03-31","launch_site_code":"AFETR","launch_vehicle":null,"mission":null,"orbit_class":"UNKNOWN","rcs_meters":null,"size_class":null,"mass_kg":null,"dimensions":null,"purposes":["comms"],"wikipedia_slug":null,"has_3d_model":false,"image_url":null,"decayed_at":null,"tle_current":{"epoch":"2026-09-21T14:56:24.031104Z","epoch_age_seconds":65350,"freshness":"FRESH","line1":"1 59354U 24060G   26264.62250036 -.00000043  00000+0  79571-5 0  9993","line2":"2 59354  43.0015 233.7234 0001030 279.6158  80.4577 15.27576992140028","mean_motion":15.27576992,"eccentricity":0.000103,"inclination_deg":43.0015,"raan_deg":233.7234,"arg_perigee_deg":279.6158,"mean_anomaly_deg":80.4577,"bstar":7.9571e-6,"rev_number":14002,"period_min":94.266934337278,"perigee_km":482.35139999294,"apogee_km":483.76480618417,"semimajor_km":6861.1951030886,"source":"CELESTRAK","updated_at":"2026-09-22T09:00:48.904094Z"}}}